Timestamp[UTC];2m Lufttemperatur [degC] (tas);Stations-Luftdruck [Pa] (ps);relative Luftfeuchtigkeit [%] (hurs);spezifische Luftfeuchtigkeit [kg/kg] (huss);Niederschlagsmenge [mm] (pr);Windgeschwindigkeit in 2m [m/s] (sfcWind);Windrichtung [deg];maximale Windgeschwindigkeit [m/s] (wsgsmax);u-Windkomponente [m/s] (uas);v-Windkomponente [m/s] (vas);Sonneneinstrahlung [W/m2];Blitzrate [n];Blitzentfernung [km];Bodenfeuchte in 5cm Tiefe [vol%];Bodenfeuchte in 15cm Tiefe [vol%];Bodenfeuchte in 30cm Tiefe [vol%];Bodenfeuchte in 60cm Tiefe [vol%];Bodentemperatur in 5cm Tiefe [degC];Bodentemperatur in 15cm Tiefe [degC];Bodentemperatur in 30cm Tiefe [degC];Bodentemperatur in 60cm Tiefe [degC];Matrixpotential in 30cm Tiefe [kPa];Bodenfeuchte aus CRNS [vol%] (mrso);Neutronen Anzahl [N/h]
2022-09-01 00:00:00;15,8;101748;58;0,0064;0,0;1,1;100;2,6;-0,19;1,11;0;0;0;16,5;16,9;15,9;21,1;18,9;19,5;19,7;19,6;-27,0;14,1;1380
2022-09-01 01:00:00;15,7;101737;59;0,0065;0,0;1,6;77;3,4;0,33;1,56;0;0;0;16,5;16,9;15,9;21,1;18,7;19,4;19,7;19,6;-27,0;14,2;1474
2022-09-01 02:00:00;14,8;101750;63;0,0065;0,0;1,4;86;3,2;0,09;1,34;0;0;0;16,5;16,9;15,9;21,1;18,5;19,2;19,6;19,6;-26,9;14,2;1420
2022-09-01 03:00:00;14,0;101753;65;0,0064;0,0;1,2;95;2,9;-0,08;1,23;0;0;0;16,5;16,8;15,9;21,1;18,3;19,0;19,5;19,5;-26,8;14,4;1535
2022-09-01 04:00:00;13,8;101743;66;0,0064;0,0;1,5;87;3,6;0,06;1,53;0;0;0;16,5;16,8;15,9;21,1;18,1;18,9;19,5;19,5;-26,8;14,4;1576
2022-09-01 05:00:00;14,0;101748;67;0,0066;0,0;1,4;83;3,3;0,15;1,36;35;0;0;16,5;16,8;15,9;21,1;17,9;18,7;19,4;19,5;-26,8;14,4;1525
2022-09-01 06:00:00;15,3;101750;68;0,0072;0,0;1,5;79;3,4;0,27;1,41;153;0;0;16,5;16,8;15,9;21,1;17,7;18,6;19,3;19,5;-26,8;14,3;1485
2022-09-01 07:00:00;17,1;101762;63;0,0075;0,0;2,2;74;4,8;0,56;2,1;291;0;0;16,4;16,8;15,9;21,1;17,7;18,4;19,2;19,5;-26,8;14,3;1431
2022-09-01 08:00:00;19,3;101737;57;0,0079;0,0;2,3;74;5,8;0,61;2,21;428;0;0;16,4;16,8;15,9;21,1;17,9;18,4;19,1;19,5;-26,8;14,3;1513
2022-09-01 09:00:00;20,9;101725;51;0,0077;0,0;3,0;78;6,2;0,6;2,92;538;0;0;16,4;16,8;15,9;21,1;18,3;18,4;19,0;19,5;-26,8;14,1;1475
2022-09-01 10:00:00;22,0;101667;48;0,0078;0,0;3,1;88;7,6;0,08;3,08;619;0;0;16,4;16,8;15,9;21,1;18,7;18,5;19,0;19,5;-26,8;14,2;1595
2022-09-01 11:00:00;22,7;101632;45;0,0076;0,0;3,1;91;7,0;-0,08;3,07;648;0;0;16,4;16,7;15,9;21,1;19,2;18,7;19,0;19,5;-26,7;14,0;1479
2022-09-01 12:00:00;23,2;101610;45;0,0078;0,0;3,1;70;6,3;1,04;2,88;538;0;0;16,3;16,7;15,9;21,1;19,6;19,0;19,0;19,4;-26,8;14,0;1447
2022-09-01 13:00:00;23,5;101562;43;0,0076;0,0;3,0;74;7,6;0,81;2,85;476;0;0;16,3;16,7;15,9;21,1;20,1;19,3;19,1;19,4;-26,8;13,8;1469
2022-09-01 14:00:00;23,9;101517;41;0,0074;0,0;3,2;86;7,6;0,16;3,22;444;0;0;16,3;16,7;15,9;21,1;20,4;19,6;19,2;19,4;-26,8;13,6;1453
2022-09-01 15:00:00;24,1;101492;39;0,0071;0,0;2,8;70;7,6;0,94;2,66;358;0;0;16,2;16,7;15,9;21,1;20,5;19,9;19,3;19,4;-26,8;13,5;1457
2022-09-01 16:00:00;23,8;101460;39;0,007;0,0;2,9;80;6,5;0,45;2,83;220;0;0;16,2;16,7;15,9;21,1;20,6;20,0;19,4;19,4;-26,8;13,5;1491
2022-09-01 17:00:00;23,0;101435;40;0,0068;0,0;2,7;72;6,5;0,82;2,58;66;0;0;16,1;16,6;16,0;21,1;20,5;20,2;19,5;19,4;-26,9;13,7;1467
2022-09-01 18:00:00;21,3;101440;44;0,0068;0,0;1,7;74;4,0;0,45;1,61;3;0;0;16,1;16,6;16,0;21,1;20,4;20,2;19,6;19,4;-26,9;13,8;1484
2022-09-01 19:00:00;19,6;101485;49;0,0069;0,0;1,0;76;2,5;0,24;1,0;0;0;0;16,1;16,6;16,0;21,1;20,1;20,1;19,7;19,4;-26,9;13,8;1551
2022-09-01 20:00:00;18,7;101497;51;0,0067;0,0;1,5;81;3,9;0,24;1,5;0;0;0;16,1;16,6;16,0;21,1;19,9;20,1;19,7;19,4;-27,0;13,9;1550
2022-09-01 21:00:00;17,6;101503;54;0,0066;0,0;1,7;88;3,5;0,06;1,66;0;0;0;16,0;16,6;16,0;21,1;19,6;19,9;19,7;19,4;-27,0;14,0;1499
2022-09-01 22:00:00;16,6;101475;56;0,0065;0,0;1,8;89;3,6;0,03;1,74;0;0;0;16,0;16,6;16,0;21,1;19,4;19,8;19,7;19,4;-27,0;14,1;1579
2022-09-01 23:00:00;15,6;101447;58;0,0063;0,0;1,4;97;3,2;-0,19;1,43;0;0;0;16,0;16,6;16,0;21,1;19,1;19,6;19,7;19,4;-27,0;14,3;1591
2022-09-02 00:00:00;15,2;101410;58;0,0062;0,0;1,3;78;3,2;0,25;1,28;0;0;0;16,0;16,5;16,0;21,1;18,9;19,5;19,7;19,4;-27,1;14,7;1521
2022-09-02 01:00:00;14,8;101387;60;0,0062;0,0;1,5;79;3,1;0,24;1,47;0;0;0;15,9;16,5;16,0;21,1;18,6;19,3;19,6;19,4;-27,0;14,8;1646
2022-09-02 02:00:00;14,2;101368;62;0,0061;0,0;1,3;99;2,5;-0,2;1,24;0;0;0;15,9;16,5;16,0;21,1;18,4;19,1;19,5;19,4;-27,0;14,9;1547
2022-09-02 03:00:00;13,9;101360;63;0,0061;0,0;1,1;97;2,4;-0,15;1,13;0;0;0;15,9;16,5;16,0;21,1;18,1;19,0;19,5;19,4;-27,0;14,9;1606
2022-09-02 04:00:00;14,0;101328;63;0,0062;0,0;1,2;94;2,8;-0,1;1,23;1;0;0;15,9;16,5;16,0;21,1;18,0;18,8;19,4;19,4;-27,0;15,0;1528
2022-09-02 05:00:00;14,1;101333;64;0,0064;0,0;1,5;92;3,8;-0,06;1,5;23;0;0;15,9;16,5;16,0;21,1;17,8;18,6;19,3;19,4;-27,1;15,1;1502
2022-09-02 06:00:00;14,5;101320;64;0,0066;0,0;1,5;88;3,7;0,05;1,51;68;0;0;15,8;16,5;16,0;21,1;17,7;18,5;19,2;19,4;-27,0;15,2;1522
2022-09-02 07:00:00;12,6;101310;81;0,0073;0,63;2,0;88;3,9;0,06;1,97;118;0;0;15,9;16,5;16,0;21,1;17,5;18,4;19,1;19,4;-27,1;15,2;1436
2022-09-02 08:00:00;nan;nan;nan;nan;0,0;nan;nan;nan;nan;nan;nan;0;nan;18,7;16,5;16,0;21,1;17,1;18,2;19,0;19,4;-27,3;nan;nan
2022-09-02 09:00:00;nan;nan;nan;nan;0,0;nan;nan;nan;nan;nan;nan;0;nan;24,3;17,6;16,0;21,1;17,1;18,0;18,9;19,4;-27,4;nan;nan
2022-09-02 10:00:00;nan;nan;nan;nan;0,0;nan;nan;nan;nan;nan;nan;0;nan;24,3;19,0;16,2;21,1;17,4;17,9;18,8;19,4;-27,4;nan;nan
2022-09-02 11:00:00;22,0;101152;72;0,0117;0,86;2,6;100;5,7;-0,46;2,56;517;0;0;23,8;19,5;16,4;21,1;17,7;17,9;18,7;19,4;-27,0;15,4;1478
2022-09-02 12:00:00;23,1;101107;48;0,0084;0,47;2,7;121;5,8;-1,38;2,27;412;0;0;23,4;19,7;16,6;21,1;18,1;18,0;18,7;19,3;-26,4;15,8;1505
2022-09-02 13:00:00;23,5;101063;43;0,0076;0,34;2,7;105;5,9;-0,67;2,58;365;0;0;23,1;19,9;16,7;21,1;18,4;18,2;18,6;19,3;-25,9;15,9;1553
2022-09-02 14:00:00;23,6;101005;40;0,0072;0,38;2,3;105;5,5;-0,6;2,24;280;0;0;22,9;19,9;16,9;21,1;18,6;18,4;18,7;19,3;-25,4;16,3;1271
2022-09-02 15:00:00;23,8;100955;39;0,0071;0,11;2,9;114;5,7;-0,8;2,44;267;0;0;22,8;20,0;17,0;21,1;18,8;18,6;18,7;19,3;-24,9;16,6;1440
2022-09-02 16:00:00;23,8;100917;39;0,0071;0,06;2,6;93;5,7;-0,18;2,57;184;0;0;22,7;20,0;17,2;21,1;18,8;18,7;18,7;19,2;-24,2;16,7;1515
2022-09-02 17:00:00;22,9;100898;40;0,0068;0,08;2,0;94;4,2;-0,17;2,02;55;0;0;22,6;20,1;17,3;21,1;18,8;18,8;18,8;19,2;-23,6;17,0;1478
2022-09-02 18:00:00;20,6;100893;45;0,0067;0,04;0,7;147;1,8;0,15;0,5;5;0;0;22,5;20,1;17,4;21,1;18,7;18,8;18,8;19,2;-22,7;17,2;1444
2022-09-02 19:00:00;19,1;100905;49;0,0066;0,06;0,7;74;1,8;0,16;0,67;0;0;0;22,4;20,1;17,5;21,1;18,6;18,8;18,9;19,2;-21,8;17,6;1544
2022-09-02 20:00:00;18,2;100927;51;0,0065;0,02;0,7;62;1,9;0,32;0,61;0;0;0;22,3;20,1;17,6;21,1;18,4;18,7;18,9;19,2;-20,9;17,7;1453
2022-09-02 21:00:00;17,1;100915;54;0,0065;0,04;0,7;61;1,9;0,32;0,61;0;0;0;22,2;20,2;17,7;21,1;18,2;18,6;18,9;19,2;-20,1;17,7;1492
2022-09-02 22:00:00;16,1;100897;58;0,0065;0,0;0,6;133;1,7;0,56;0,17;0;0;0;22,1;20,2;17,8;21,1;18,0;18,6;18,9;19,1;-19,3;17,9;1514
2022-09-02 23:00:00;15,4;100880;60;0,0064;0,02;0,7;98;1,9;0,6;0,31;0;0;0;22,0;20,2;17,8;21,1;17,8;18,4;18,8;19,1;-18,6;18,0;1412
2022-09-03 00:00:00;15,2;100873;60;0,0064;0,0;0,8;40;2,2;0,53;0,48;0;0;0;22,0;20,2;17,9;21,1;17,6;18,3;18,8;19,1;-18,1;18,1;1486
2022-09-03 01:00:00;15,4;100867;59;0,0064;0,02;1,4;80;3,3;0,23;1,39;0;0;0;21,9;20,2;18,0;21,1;17,4;18,1;18,8;19,1;-17,6;18,3;1446
2022-09-03 02:00:00;14,6;100863;62;0,0063;0,0;1,3;82;2,6;0,18;1,24;0;0;0;21,8;20,2;18,0;21,1;17,2;18,0;18,7;19,1;-17,3;18,6;1485
2022-09-03 03:00:00;13,8;100837;64;0,0062;0,0;1,2;83;2,5;0,13;1,18;0;0;0;21,8;20,1;18,1;21,1;17,1;17,9;18,6;19,1;-17,1;18,5;1510
2022-09-03 04:00:00;13,4;100820;65;0,0061;0,02;1,4;68;3,0;0,5;1,28;1;0;0;21,7;20,1;18,1;21,1;16,9;17,7;18,6;19,1;-16,8;18,7;1523
2022-09-03 05:00:00;13,2;100820;67;0,0062;0,0;1,5;87;3,2;0,06;1,48;22;0;0;21,6;20,1;18,2;21,1;16,7;17,6;18,5;19,1;-16,6;19,0;1500
2022-09-03 06:00:00;14,4;100822;67;0,0068;0,0;1,5;74;3,7;0,41;1,45;145;0;0;21,6;20,1;18,2;21,1;16,6;17,5;18,4;19,1;-16,5;19,3;1442
2022-09-03 07:00:00;16,8;100807;63;0,0074;0,0;2,0;72;4,6;0,59;1,86;282;0;0;21,5;20,1;18,3;21,1;16,6;17,3;18,3;19,0;-16,3;19,6;1479
2022-09-03 08:00:00;19,2;100812;57;0,0079;0,02;2,4;78;5,1;0,46;2,38;414;0;0;21,4;20,1;18,3;21,1;16,7;17,3;18,2;19,0;-16,2;19,9;1545
2022-09-03 09:00:00;21,3;100803;52;0,0082;0,0;2,7;113;6,7;-1,0;2,44;520;0;0;21,3;20,1;18,3;21,1;17,0;17,3;18,1;19,0;-16,1;20,2;1471
2022-09-03 10:00:00;22,3;100792;51;0,0085;0,0;2,8;114;5,9;-1,08;2,46;587;0;0;21,2;20,0;18,4;21,1;17,5;17,4;18,1;19,0;-16,0;20,5;1465
2022-09-03 11:00:00;23,6;100770;50;0,0091;0,02;2,1;128;5,5;-1,27;1,52;645;0;0;21,1;20,0;18,4;21,1;18,0;17,6;18,1;18,9;-15,9;20,7;1465
2022-09-03 12:00:00;24,6;100748;48;0,0093;0,0;2,0;138;5,4;-1,38;1,29;639;0;0;21,0;20,0;18,4;21,1;18,5;17,9;18,1;18,9;-15,8;20,9;1458
2022-09-03 13:00:00;25,1;100720;46;0,0091;0,0;2,0;91;5,1;-0,05;1,98;541;0;0;20,9;19,9;18,5;21,1;19,0;18,2;18,1;18,9;-15,8;20,8;1418
2022-09-03 14:00:00;25,6;100703;46;0,0094;0,02;2,0;125;4,8;-1,18;1,66;536;0;0;20,8;19,9;18,5;21,1;19,5;18,5;18,3;18,9;-15,8;20,9;1325
2022-09-03 15:00:00;25,0;100738;47;0,0092;0,0;2,3;155;5,2;-2,07;0,92;302;0;0;20,7;19,9;18,5;21,1;19,8;18,9;18,4;18,8;-15,7;21,1;1338
2022-09-03 16:00:00;24,6;100750;49;0,0094;0,0;2,3;120;5,6;-1,13;1,96;190;0;0;20,6;19,9;18,5;21,1;20,0;19,1;18,5;18,8;-15,7;21,4;1359
2022-09-03 17:00:00;24,0;100768;50;0,0093;0,0;1,9;114;4,4;-0,74;1,7;63;0;0;20,6;19,8;18,5;21,1;20,0;19,3;18,6;18,8;-15,6;21,4;1351
2022-09-03 18:00:00;23,2;100837;52;0,0092;0,0;2,2;96;4,9;-0,25;2,22;3;0;0;20,5;19,8;18,6;21,1;19,9;19,4;18,7;18,8;-15,6;21,0;1284
2022-09-03 19:00:00;21,7;100895;55;0,0088;0,02;1,2;117;2,8;-0,42;1,04;0;0;0;20,4;19,8;18,6;21,1;19,8;19,4;18,8;18,8;-15,6;20,9;1369
2022-09-03 20:00:00;20,7;100957;62;0,0094;0,0;1,2;160;2,6;-1,08;0,36;0;0;0;20,4;19,7;18,6;21,1;19,6;19,4;18,9;18,8;-15,6;21,0;1262
2022-09-03 21:00:00;19,2;101005;70;0,0096;0,0;1,1;179;2,6;-0,71;0,48;0;0;0;20,4;19,7;18,6;21,1;19,4;19,4;19,0;18,8;-15,6;21,2;1343
2022-09-03 22:00:00;16,7;101043;74;0,0087;0,0;0,4;299;0,9;0,2;-0,37;0;0;0;20,3;19,7;18,6;21,1;19,2;19,3;19,0;18,8;-15,6;21,2;1354
2022-09-03 23:00:00;15,3;101072;78;0,0084;0,0;0,5;272;1,0;0,04;-0,44;0;0;0;20,3;19,7;18,7;21,1;19,0;19,2;19,0;18,8;-15,6;21,1;1297
2022-09-04 00:00:00;14,2;101090;83;0,0082;0,0;0,4;256;0,9;-0,06;-0,37;0;0;0;20,3;19,7;18,7;21,1;18,7;19,1;19,0;18,8;-15,7;21,5;1461
2022-09-04 01:00:00;14,2;101122;81;0,0081;0,02;0,6;50;1,5;0,3;0,45;0;0;0;20,2;19,7;18,7;21,1;18,5;18,9;19,0;18,8;-15,7;21,4;1361
2022-09-04 02:00:00;13,9;101153;80;0,0078;0,0;0,5;222;1,1;0,12;0,09;0;0;0;20,2;19,6;18,7;21,1;18,3;18,8;18,9;18,9;-15,7;21,3;1331
2022-09-04 03:00:00;12,3;101197;84;0,0074;0,0;0,5;289;0,8;0,16;-0,42;0;0;0;20,2;19,6;18,7;21,1;18,0;18,6;18,9;18,9;-15,7;21,0;1356
2022-09-04 04:00:00;11,7;101220;85;0,0072;0,0;0,4;292;0,7;0,14;-0,39;1;0;0;20,2;19,6;18,7;21,1;17,8;18,5;18,8;18,9;-15,7;21,0;1438
2022-09-04 05:00:00;12,2;101270;86;0,0076;0,0;0,3;285;0,6;0,08;-0,3;39;0;0;20,1;19,6;18,7;21,1;17,6;18,3;18,8;18,9;-15,7;21,1;1613
2022-09-04 06:00:00;15,3;101333;83;0,0089;0,0;0,4;283;0,8;0,11;-0,33;137;0;0;20,1;19,6;18,7;21,1;17,5;18,2;18,7;18,9;-15,7;21,0;1445
2022-09-04 07:00:00;18,4;101350;76;0,0099;0,0;0,6;266;1,5;0,51;-0,19;270;0;0;20,1;19,6;18,7;21,1;17,5;18,0;18,6;18,9;-15,7;20,7;1358
2022-09-04 08:00:00;21,0;101413;74;0,0113;0,02;0,9;100;2,4;-0,25;0,63;407;0;0;20,0;19,6;18,8;21,1;17,7;18,0;18,6;18,9;-15,7;20,6;1380
2022-09-04 09:00:00;22,4;101415;72;0,012;0,0;1,2;152;3,6;-0,88;0,55;501;0;0;20,0;19,5;18,8;21,1;18,0;18,0;18,5;18,9;-15,7;20,4;1373
2022-09-04 10:00:00;23,9;101413;67;0,0122;0,0;1,3;145;4,0;-1,09;0,76;567;0;0;19,9;19,5;18,8;21,1;18,5;18,1;18,5;18,8;-15,7;20,2;1419
2022-09-04 11:00:00;25,0;101410;62;0,0121;0,0;1,8;192;4,1;-1,46;-0,2;644;0;0;19,8;19,5;18,8;21,1;19,1;18,4;18,5;18,8;-15,8;20,2;1229
2022-09-04 12:00:00;25,8;101413;58;0,0118;0,0;2,1;170;5,5;-1,79;0,39;676;0;0;19,8;19,4;18,8;21,1;19,7;18,7;18,5;18,8;-15,8;20,1;1391
2022-09-04 13:00:00;25,8;101430;56;0,0115;0,0;1,6;168;3,7;-1,44;0,48;440;0;0;19,7;19,4;18,8;21,1;20,2;19,1;18,6;18,8;-15,8;20,2;1368
2022-09-04 14:00:00;26,0;101442;56;0,0115;0,0;1,2;329;3,2;0,98;-0,58;358;0;0;19,6;19,4;18,8;21,1;20,6;19,4;18,7;18,8;-15,8;20,1;1366
2022-09-04 15:00:00;26,1;101447;53;0,0111;0,0;1,0;236;3,0;-0,25;-0,5;271;0;0;19,5;19,3;18,8;21,1;21,0;19,8;18,8;18,8;-15,8;19,8;1246
2022-09-04 16:00:00;26,2;101438;52;0,011;0,0;0,7;162;1,9;-0,16;0,31;162;0;0;19,5;19,3;18,8;21,1;21,2;20,0;19,0;18,8;-15,9;19,6;1281
2022-09-04 17:00:00;25,7;101457;53;0,0108;0,0;0,7;100;1,1;-0,12;0,64;64;0;0;19,4;19,3;18,8;21,1;21,2;20,2;19,1;18,8;-15,9;19,6;1302
2022-09-04 18:00:00;23,5;101466;60;0,0106;0,0;0,4;207;0,9;0,0;0,21;12;0;0;19,4;19,3;18,8;21,1;21,2;20,3;19,2;18,8;-15,9;20,2;1347
2022-09-04 19:00:00;20,7;101520;67;0,01;0,0;0,4;314;0,6;0,26;-0,26;0;0;0;19,3;19,2;18,8;21,1;21,0;20,4;19,4;18,8;-15,9;20,1;1372
2022-09-04 20:00:00;18,7;101555;73;0,0097;0,0;0,5;325;0,8;0,42;-0,29;0;0;0;19,3;19,2;18,8;21,1;20,7;20,4;19,5;18,8;-16,0;19,8;1285
2022-09-04 21:00:00;17,4;101580;78;0,0095;0,0;0,5;321;0,8;0,36;-0,3;0;0;0;19,3;19,2;18,8;21,1;20,4;20,3;19,5;18,8;-16,0;19,6;1346
2022-09-04 22:00:00;16,2;101588;82;0,0093;0,0;0,4;312;0,7;0,3;-0,31;0;0;0;19,3;19,2;18,8;21,1;20,1;20,2;19,6;18,9;-16,0;19,3;1326
2022-09-04 23:00:00;15,6;101600;84;0,0091;0,0;0,5;320;0,8;0,38;-0,3;0;0;0;19,2;19,1;18,8;21,1;19,9;20,0;19,6;18,9;-16,0;19,3;1308
2022-09-05 00:00:00;15,2;101590;85;0,009;0,02;0,5;315;0,7;0,33;-0,32;0;0;0;19,2;19,1;18,8;21,2;19,6;19,9;19,6;18,9;-16,0;18,9;1370
2022-09-05 01:00:00;14,5;101583;87;0,0089;0,0;0,4;309;0,7;0,28;-0,32;0;0;0;19,2;19,1;18,8;21,2;19,4;19,7;19,6;18,9;-16,1;18,7;1357
2022-09-05 02:00:00;14,6;101583;88;0,009;0,0;0,5;311;0,8;0,3;-0,34;0;0;0;19,2;19,1;18,8;21,2;19,1;19,5;19,5;18,9;-16,1;18,9;1416
2022-09-05 03:00:00;15,0;101580;88;0,0092;0,0;0,4;296;0,7;0,18;-0,33;0;0;0;19,1;19,1;18,8;21,2;18,9;19,4;19,4;19,0;-16,1;19,1;1400
2022-09-05 04:00:00;14,6;101600;88;0,009;0,0;0,4;296;0,7;0,18;-0,34;0;0;0;19,1;19,1;18,8;21,2;18,8;19,2;19,4;19,0;-16,1;18,7;1386
2022-09-05 05:00:00;14,2;101605;90;0,009;0,0;0,4;314;0,6;0,27;-0,26;15;0;0;19,1;19,1;18,8;21,2;18,6;19,1;19,3;19,0;-16,1;18,6;1287
2022-09-05 06:00:00;16,5;101622;91;0,0105;0,0;0,6;234;1,3;0,08;0,06;142;0;0;19,1;19,0;18,8;21,2;18,5;19,0;19,3;19,0;-16,2;18,5;1424
2022-09-05 07:00:00;20,3;101623;76;0,0111;0,0;1,2;96;2,5;-0,15;1,24;281;0;0;19,1;19,0;18,8;21,2;18,5;18,9;19,2;19,0;-16,2;18,4;1455
2022-09-05 08:00:00;23,2;101638;66;0,0116;0,0;1,3;94;3,2;-0,12;1,29;397;0;0;19,0;19,0;18,8;21,2;18,7;18,8;19,1;19,0;-16,2;18,7;1421
2022-09-05 09:00:00;25,2;101603;58;0,0114;0,0;1,6;97;3,6;-0,17;1,53;501;0;0;19,0;19,0;18,8;21,2;19,1;18,8;19,1;19,0;-16,2;18,9;1467
2022-09-05 10:00:00;26,9;101572;49;0,0107;0,0;1,1;127;3,7;-0,49;0,44;588;0;0;18,9;19,0;18,8;21,2;19,6;19,0;19,0;19,0;-16,3;19,1;1372
2022-09-05 11:00:00;27,6;101537;46;0,0105;0,0;1,7;153;4,0;-1,5;0,67;624;0;0;18,9;18,9;18,8;21,2;20,1;19,3;19,0;19,0;-16,3;19,1;1409
2022-09-05 12:00:00;27,6;101512;45;0,0102;0,0;1,0;144;2,7;0,28;0,34;444;0;0;18,8;18,9;18,8;21,2;20,6;19,5;19,1;19,0;-16,3;19,0;1437
2022-09-05 13:00:00;28,4;101483;42;0,01;0,0;1,3;93;3,1;-0,13;0,65;434;0;0;18,8;18,9;18,8;21,2;21,1;19,9;19,2;19,0;-16,4;18,7;1263
2022-09-05 14:00:00;28,4;101432;40;0,0096;0,0;1,2;132;3,1;-0,77;0,88;392;0;0;18,7;18,8;18,8;21,2;21,4;20,2;19,3;19,0;-16,4;18,4;1285
2022-09-05 15:00:00;28,0;101407;41;0,0096;0,0;0,9;338;2,1;0,85;-0,34;194;0;0;18,6;18,8;18,8;21,2;21,6;20,4;19,4;19,0;-16,4;18,4;1393
2022-09-05 16:00:00;27,9;101373;42;0,0097;0,0;0,9;143;2,3;0,69;0,29;174;0;0;18,6;18,8;18,8;21,2;21,8;20,7;19,5;19,0;-16,4;18,3;1335
2022-09-05 17:00:00;26,4;101328;44;0,0094;0,0;0,5;316;0,8;0,33;-0,31;32;0;0;18,5;18,8;18,8;21,2;21,8;20,8;19,6;19,0;-16,5;18,1;1404
2022-09-05 18:00:00;24,0;101320;51;0,0094;0,0;0,5;332;0,9;0,47;-0,24;2;0;0;18,5;18,7;18,8;21,2;21,7;20,9;19,8;19,0;-16,5;17,8;1069
2022-09-05 19:00:00;21,9;101320;59;0,0096;0,0;0,5;323;0,9;0,41;-0,26;0;0;0;18,5;18,7;18,8;21,2;21,5;20,9;19,9;19,0;-16,5;17,8;1214
2022-09-05 20:00:00;19,7;101290;66;0,0093;0,0;0,5;324;0,9;0,41;-0,3;0;0;0;18,4;18,7;18,8;21,2;21,3;20,9;19,9;19,0;-16,6;18,1;1218
2022-09-05 21:00:00;18,3;101288;71;0,0092;0,0;0,5;322;0,7;0,37;-0,28;0;0;0;18,4;18,7;18,8;21,2;21,0;20,8;20,0;19,0;-16,6;18,2;1289
2022-09-05 22:00:00;18,3;101245;70;0,0091;0,0;0,3;198;0,9;-0,28;-0,08;0;0;0;18,4;18,6;18,8;21,2;20,7;20,7;20,0;19,1;-16,7;18,5;1308
2022-09-05 23:00:00;19,4;101225;67;0,0093;0,0;0,5;182;1,1;-0,22;0,18;0;0;0;18,4;18,6;18,8;21,2;20,5;20,5;20,0;19,1;-16,7;18,4;1391
2022-09-06 00:00:00;19,1;101197;68;0,0093;0,0;0,5;152;0,9;-0,13;0,2;0;0;0;18,3;18,6;18,8;21,2;20,2;20,4;20,0;19,1;-16,7;18,6;1492
2022-09-06 01:00:00;18,4;101215;69;0,0091;0,0;0,8;248;2,4;-0,19;-0,51;0;0;0;18,3;18,6;18,8;21,2;20,0;20,3;20,0;19,1;-16,7;18,6;1516
2022-09-06 02:00:00;18,1;101260;71;0,0091;0,0;0,8;200;2,2;-0,73;-0,27;0;0;0;18,3;18,6;18,8;21,2;19,9;20,1;19,9;19,2;-16,8;18,2;1485
2022-09-06 03:00:00;18,2;101208;73;0,0095;0,0;1,1;279;2,6;0,36;-0,47;0;0;0;18,3;18,5;18,8;21,2;19,7;20,0;19,9;19,2;-16,8;18,5;1455
2022-09-06 04:00:00;18,3;101200;78;0,0101;0,0;1,1;159;2,7;-0,71;0,47;0;0;0;18,3;18,5;18,8;21,2;19,6;19,9;19,8;19,2;-16,8;18,7;1515
2022-09-06 05:00:00;17,7;101218;84;0,0106;0,0;1,0;260;2,5;0,18;-0,01;6;1;4;18,3;18,5;18,7;21,2;19,5;19,8;19,8;19,2;-16,8;18,7;1462
2022-09-06 06:00:00;17,5;101230;88;0,0108;0,0;0,8;298;1,4;0,36;-0,64;47;0;0;18,2;18,5;18,7;21,2;19,4;19,7;19,7;19,2;-16,9;18,8;1455
2022-09-06 07:00:00;19,4;101202;85;0,0118;0,0;0,5;252;1,0;0,4;-0,1;233;0;0;18,2;18,5;18,7;21,2;19,4;19,6;19,7;19,2;-16,9;18,7;1368
2022-09-06 08:00:00;22,8;101177;71;0,0121;0,0;1,0;67;2,4;0,24;0,89;402;0;0;18,2;18,5;18,7;21,2;19,5;19,5;19,6;19,2;-16,9;18,6;1430
2022-09-06 09:00:00;25,0;101170;62;0,0121;0,0;1,3;188;3,2;-1,15;-0,18;513;0;0;18,2;18,5;18,7;21,2;19,8;19,5;19,6;19,2;-17,0;18,1;1374
2022-09-06 10:00:00;26,2;101123;54;0,0114;0,0;1,3;186;4,1;-0,98;-0,02;587;0;0;18,1;18,4;18,7;21,2;20,2;19,6;19,6;19,2;-17,0;17,8;1438
2022-09-06 11:00:00;27,1;101097;51;0,0113;0,0;1,1;247;2,9;-0,19;-0,53;613;0;0;18,1;18,4;18,7;21,2;20,6;19,8;19,5;19,2;-17,0;17,4;1399
2022-09-06 12:00:00;27,8;101083;49;0,0113;0,0;1,6;177;4,9;-1,47;-0,01;600;0;0;18,1;18,4;18,7;21,2;21,1;20,1;19,6;19,2;-17,0;17,1;1459
2022-09-06 13:00:00;28,5;101058;47;0,0113;0,0;1,7;212;4,3;-1,32;-0,82;554;0;0;18,0;18,4;18,7;21,2;21,5;20,4;19,6;19,2;-17,1;17,0;1502
2022-09-06 14:00:00;28,6;101030;44;0,0107;0,0;1,6;219;4,3;-1,14;-0,65;433;0;0;18,0;18,3;18,7;21,2;21,9;20,7;19,7;19,2;-17,2;17,3;1189
2022-09-06 15:00:00;28,8;100997;42;0,0104;0,0;1,2;278;3,6;0,11;-0,59;349;0;0;17,9;18,3;18,7;21,2;22,2;21,0;19,9;19,2;-17,2;17,4;1372
2022-09-06 16:00:00;28,5;100948;40;0,0096;0,0;1,5;323;3,2;1,17;-0,82;200;0;0;17,8;18,3;18,7;21,2;22,3;21,2;20,0;19,2;-17,2;17,6;1386
2022-09-06 17:00:00;26,6;100947;43;0,0092;0,0;0,7;320;1,2;0,53;-0,47;31;0;0;17,8;18,3;18,7;21,2;22,3;21,3;20,1;19,2;-17,3;17,9;1424
2022-09-06 18:00:00;22,8;100942;54;0,0092;0,0;0,6;274;0,9;0,18;-0,3;2;0;0;17,8;18,2;18,7;21,2;22,1;21,4;20,2;19,2;-17,3;18,2;1470
2022-09-06 19:00:00;20,2;100922;63;0,0092;0,0;0,6;329;1,1;0,49;-0,24;0;0;0;17,7;18,2;18,7;21,2;21,8;21,4;20,3;19,3;-17,4;18,1;1338
2022-09-06 20:00:00;18,5;100855;67;0,0089;0,0;0,6;334;1,0;0,5;-0,25;0;0;0;17,7;18,2;18,7;21,2;21,4;21,3;20,4;19,3;-17,4;17,8;1517
2022-09-06 21:00:00;18,7;100843;67;0,009;0,0;0,8;215;1,6;-0,25;0,15;0;0;0;17,7;18,2;18,7;21,2;21,1;21,2;20,4;19,3;-17,5;18,0;1506
2022-09-06 22:00:00;20,2;100832;64;0,0094;0,0;0,9;238;2,6;-0,32;0,06;0;0;0;17,7;18,1;18,7;21,2;20,9;21,0;20,4;19,3;-17,5;17,9;1634
2022-09-06 23:00:00;22,0;100773;60;0,0098;0,0;0,9;253;2,1;-0,19;-0,41;0;1;6;17,6;18,1;18,7;21,2;20,7;20,8;20,4;19,3;-17,6;18,2;1587
2022-09-07 00:00:00;19,8;100942;72;0,0102;0,27;1,7;222;5,9;-1,17;-1,17;0;2;11;17,6;18,1;18,7;21,2;20,5;20,7;20,4;19,3;-17,6;18,4;1598
2022-09-07 01:00:00;17,7;100983;86;0,0107;0,11;1,4;196;4,5;-1,11;-0,34;0;0;0;17,6;18,1;18,6;21,2;20,4;20,5;20,3;19,4;-17,7;18,8;1409
2022-09-07 02:00:00;17,3;100862;89;0,0108;0,09;1,5;155;3,3;-1,21;0,59;0;0;0;17,8;18,1;18,6;21,2;20,2;20,4;20,3;19,4;-17,7;19,0;1444
2022-09-07 03:00:00;15,9;100863;93;0,0104;0,04;0,5;286;1,2;0,15;-0,47;0;0;0;18,3;18,1;18,6;21,2;20,0;20,3;20,2;19,4;-17,7;18,6;1421
2022-09-07 04:00:00;15,0;100855;93;0,0098;0,02;0,4;285;0,8;0,12;-0,33;0;0;0;18,6;18,2;18,6;21,2;19,8;20,2;20,2;19,4;-17,7;18,6;1394
2022-09-07 05:00:00;14,7;100843;94;0,0097;0,0;0,5;266;1,0;-0,01;-0,45;24;0;0;18,7;18,3;18,6;21,3;19,6;20,0;20,1;19,4;-17,8;18,5;1392
2022-09-07 06:00:00;14,9;100877;99;0,0104;0,02;0,3;271;0,6;0,02;-0,32;92;0;0;18,8;18,4;18,6;21,3;19,4;19,9;20,0;19,4;-17,8;18,6;1573
2022-09-07 07:00:00;16,9;100898;99;0,0118;0,0;0,8;236;1,9;-0,54;-0,4;164;0;0;18,9;18,5;18,6;21,3;19,3;19,7;20,0;19,5;-17,8;18,5;1569
2022-09-07 08:00:00;18,7;100957;98;0,0131;0,0;1,4;234;3,8;-0,73;-1,09;241;0;0;18,9;18,6;18,7;21,3;19,4;19,6;19,9;19,4;-17,8;18,4;1364
2022-09-07 09:00:00;18,1;100950;93;0,0119;0,0;1,4;287;3,1;0,31;-0,87;98;0;0;18,9;18,6;18,7;21,3;19,5;19,6;19,8;19,4;-17,7;18,5;1461
2022-09-07 10:00:00;18,2;100970;95;0,0124;0,0;1,3;215;2,7;-1,05;-0,75;238;0;0;19,1;18,7;18,7;21,3;19,6;19,6;19,8;19,4;-17,7;18,7;1321
2022-09-07 11:00:00;19,3;100980;90;0,0124;0,02;1,5;240;3,8;-0,72;-1,21;296;0;0;19,2;18,7;18,7;21,3;19,7;19,6;19,7;19,4;-17,6;19,1;1300
2022-09-07 12:00:00;20,6;100940;82;0,0124;0,0;1,3;243;3,3;-0,56;-1,1;362;0;0;19,3;18,8;18,7;21,3;19,9;19,7;19,7;19,4;-17,6;19,3;1315
2022-09-07 13:00:00;22,0;100895;76;0,0124;0,0;1,2;210;3,3;-1,02;-0,57;428;0;0;19,3;18,9;18,7;21,3;20,2;19,8;19,7;19,4;-17,6;19,7;1404
2022-09-07 14:00:00;22,8;100860;69;0,0119;0,0;1,3;293;3,5;0,51;-1,18;312;0;0;19,3;18,9;18,7;21,3;20,6;19,9;19,7;19,4;-17,5;19,7;1396
2022-09-07 15:00:00;23,2;100832;65;0,0115;0,0;0,8;206;2,4;-0,56;-0,07;230;0;0;19,3;18,9;18,7;21,3;20,8;20,1;19,7;19,4;-17,5;19,5;1426
2022-09-07 16:00:00;23,4;100797;62;0,011;0,0;1,0;172;2,2;-0,95;0,14;168;0;0;19,3;18,9;18,8;21,3;21,0;20,3;19,8;19,4;-17,5;19,5;1438
2022-09-07 17:00:00;22,6;100770;61;0,0104;0,0;0,7;210;1,6;-0,55;-0,26;48;0;0;19,3;18,9;18,8;21,3;21,1;20,4;19,8;19,4;-17,4;19,4;1388
2022-09-07 18:00:00;19,8;100765;72;0,0103;0,0;0,4;298;0,8;0,24;-0,35;1;0;0;19,2;18,9;18,8;21,3;21,0;20,5;19,9;19,4;-17,4;19,2;1530
2022-09-07 19:00:00;17,8;100760;79;0,01;0,0;0,4;297;0,8;0,26;-0,25;0;0;0;19,2;19,0;18,8;21,3;20,8;20,5;20,0;19,4;-17,4;19,0;1423
2022-09-07 20:00:00;16,3;100770;86;0,0099;0,0;0,5;317;0,8;0,39;-0,36;0;0;0;19,2;19,0;18,8;21,3;20,5;20,5;20,0;19,4;-17,4;19,1;1466
2022-09-07 21:00:00;15,4;100730;90;0,0097;0,0;0,6;315;1,0;0,4;-0,36;0;0;0;19,2;19,0;18,8;21,3;20,2;20,4;20,0;19,4;-17,3;18,7;1419
2022-09-07 22:00:00;15,0;100688;91;0,0097;0,0;0,6;312;0,9;0,41;-0,36;0;0;0;19,2;19,0;18,8;21,3;19,9;20,2;20,0;19,4;-17,3;18,1;1486
2022-09-07 23:00:00;15,0;100645;92;0,0098;0,0;0,4;295;0,8;0,17;-0,34;0;0;0;19,2;19,0;18,8;21,3;19,6;20,1;20,0;19,4;-17,3;17,8;1501
2022-09-08 00:00:00;15,4;100577;92;0,01;0,02;0,5;230;0,9;-0,02;-0,14;0;0;0;19,1;19,0;18,9;21,3;19,4;19,9;19,9;19,4;-17,3;17,5;1449
2022-09-08 01:00:00;16,5;100487;91;0,0106;0,0;0,6;70;1,4;0,2;0,53;0;0;0;19,1;19,0;18,9;21,3;19,3;19,7;19,9;19,4;-17,3;17,1;1491
2022-09-08 02:00:00;16,8;100430;90;0,0108;0,0;0,7;63;1,8;0,18;0,46;0;0;0;19,1;19,0;18,9;21,3;19,2;19,6;19,8;19,4;-17,3;16,6;1592
2022-09-08 03:00:00;17,1;100403;88;0,0107;0,0;0,7;155;1,5;0,16;0,39;0;0;0;19,1;19,0;18,9;21,3;19,1;19,5;19,8;19,4;-17,3;16,7;2694
2022-09-08 04:00:00;18,1;100393;82;0,0106;0,0;1,2;179;2,9;-1,17;0,02;0;0;0;19,1;19,0;18,9;21,3;19,0;19,4;19,7;19,4;-17,3;16,8;2142
2022-09-08 05:00:00;17,4;100430;84;0,0104;0,0;1,5;202;4,0;-1,36;-0,36;3;0;0;19,1;19,0;18,9;21,3;18,9;19,3;19,6;19,4;-17,3;16,9;2097
2022-09-08 06:00:00;16,3;100430;92;0,0106;0,0;0,9;244;2,3;-0,37;-0,8;14;0;0;19,1;19,0;18,9;21,3;18,8;19,2;19,6;19,4;-17,3;16,8;1732
2022-09-08 07:00:00;15,7;100482;94;0,0104;0,0;0,9;263;2,9;-0,1;-0,82;29;0;0;19,7;19,0;18,9;21,3;18,8;19,2;19,5;19,4;-17,3;17,2;1627